Preview of NWS' New Version of Forecast
This preview is not operational and should not be used for support decisions.

Regional Weather Roundup (RWR)

Issued by Philadelphia/Mt Holly (PHI)

                            
000
ASUS41 KPHI 212313
RWRPHI

REGIONAL WEATHER ROUNDUP
NATIONAL WEATHER SERVICE MOUNT HOLLY NJ
700 PM EDT THU JUN 21 2018

NOTE:  "FAIR" INDICATES FEW OR NO CLOUDS BELOW 12,000 FEET WITH NO
SIGNIFICANT WEATHER AND/OR OBSTRUCTIONS TO VISIBILITY.

 * = STATION DOES NOT REPORT PRECIPITATION (E.G. RAIN, SNOW, ETC.) 
        OR FOG.

NJZ015>026-220000-
SOUTHERN NEW JERSEY
  
CITY           SKY/WX    TMP DP  RH WIND       PRES   REMARKS
POMONA         CLOUDY    75  63  66 SE6       29.79R                  
WILDWOOD*      FAIR      75  66  73 E5        29.80R                  
MILLVILLE      FAIR      77  68  73 S5        29.79R                  
WRIGHTSTOWN    FAIR      80  56  43 N5        29.75R                  
MOUNT HOLLY    FAIR      79  62  56 N3        29.77R                  
TRENTON        FAIR      83  56  39 N5        29.77R                  

$$
NJZ001>014-220000-
NORTHERN NEW JERSEY
  
CITY           SKY/WX    TMP DP  RH WIND       PRES   REMARKS
SUSSEX         PTSUNNY   80  65  59 CALM      29.79R                  
ANDOVER*         N/A     80  65  59 CALM      29.79R                  
MORRISTOWN     MOSUNNY   81  63  54 NE3       29.77S                  
NEWARK         PTSUNNY   83  56  39 S7        29.76R                  
TETERBORO      FAIR      86  53  32 NE8       29.75R                  
CALDWELL       FAIR      84  54  35 NW6       29.77R                  
SOMERVILLE     FAIR      78  66  66 CALM      29.75S                  
ALLAIRE*       FAIR      77  61  57 SE6       29.79R                  
TOMS RIVER*    FAIR      78  66  66 S6        29.79R                  

$$
PAZ043-044-047-054-055-060>062-066>071-220000-
EASTERN PENNSYLVANIA
  
CITY           SKY/WX    TMP DP  RH WIND       PRES   REMARKS
PHILADELPHIA   PTSUNNY   81  62  52 CALM      29.77R                  
NORTH PHILA    FAIR      82  59  45 NE5       29.79R                  
BLUE BELL*     FAIR      79  55  44 CALM      29.81R                  
DOYLESTOWN     FAIR      79  59  50 CALM      29.78S                  
QUAKERTOWN*    SUNNY     81  59  47 CALM      29.80R                  
PERKASIE*      FAIR      75  63  64 CALM      29.81R                  
POTTSTOWN      FAIR      80  57  45 CALM      29.81R                  
LANCASTER      FAIR      83  55  38 NE6       29.79R                  
COATESVILLE    FAIR      79  50  36 CALM      29.82R                  
READING        FAIR      83  56  39 W6        29.78R                  
ALLENTOWN      FAIR      84  54  35 CALM      29.78R                  
MOUNT POCONO   FAIR      75  57  53 N12       29.86R                  
HAZLETON       FAIR      77  55  47 N5        29.88R                  
LEHIGHTON      FAIR      81  57  44 CALM      29.80R                  
WILKES BARRE   FAIR      80  58  46 N10       29.82R                  

$$
DEZALL-MDZ008-012-015-019-020-220000-
DELAWARE AND EASTERN MARYLAND
  
CITY           SKY/WX    TMP DP  RH WIND       PRES   REMARKS
WILMINGTON     FAIR      80  65  59 S6        29.78R                  
DOVER          PTSUNNY   76  68  76 E6        29.78S                  
GEORGETOWN     FAIR      75  68  78 E7        29.80S                  
EASTON         CLOUDY    81  68  65 E7        29.82R                  
ABERDEEN       PTSUNNY   81  66  61 CALM      29.77S                  
PATUXENT       PTSUNNY   82  69  64 N10       29.77                   
OCEAN CITY     CLOUDY    73  68  84 NE10      29.81R                  
WALLOPS ISLAND PTSUNNY   76  71  85 NE14      29.79R                  
CAMBRIDGE      CLOUDY    81  70  69 VRB5      29.78R                  
SALISBURY      CLOUDY    75  71  87 E8        29.79R                  

$$
PAZ001-021-NYZ056-072-MDZ011-DCZ001-220000-
OTHER NEARBY LOCATIONS
  
CITY           SKY/WX    TMP DP  RH WIND       PRES   REMARKS
HARRISBURG     PTSUNNY   83  53  35 NE5       29.78S                  
STATE COLLEGE  SUNNY     77  57  50 NE6       29.84S                  
WILLIAMSPORT   FAIR      81  56  42 NE6       29.80R                  
BINGHAMTON     FAIR      71  52  50 N10       29.88R                  
NEW YORK CITY  FAIR      81  56  42 VRB3      29.79R                  
BALTIMORE      PTSUNNY   79  68  69 E8        29.77S                  
WASHINGTON DC  CLOUDY    81  68  64 NE7       29.78R                  

$$